This is the latest recevied weather packets stored in our database for station/object ED4YAF-13. If no packets are shown the sender has not sent any weather packets the latest 10 day(s).
| Time | Temp. | Humidity | Pressure | Rain* | Wind** | Luminosity | Snow |
|---|---|---|---|---|---|---|---|
| 1787842721 | 17.22° C | 44% | 1010.3 hPa | - | - | - | - |
| 1787841816 | 18.89° C | 42% | 1009.4 hPa | - | - | - | - |
| 1787840921 | 18.89° C | 43% | 1009.3 hPa | - | - | - | - |
| 1787839999 | 18.33° C | 44% | 1009.8 hPa | - | - | - | - |
| 1787839099 | 17.78° C | 47% | 1010.3 hPa | - | - | - | - |
| 1787838195 | 17.78° C | 47% | 1010.1 hPa | - | - | - | - |
| 1787837284 | 17.78° C | 47% | 1010.6 hPa | - | - | - | - |
| 1787836378 | 17.78° C | 47% | 1010.3 hPa | - | - | - | - |
| 1787835478 | 17.78° C | 46% | 1009.8 hPa | - | - | - | - |
| 1787834578 | 18.33° C | 45% | 1009.8 hPa | - | - | - | - |
| 1787832751 | 19.44° C | 46% | 1009.2 hPa | - | - | - | - |
| 1787831848 | 18.89° C | 46% | 1009.5 hPa | - | - | - | - |
| 1787830934 | 17.78° C | 50% | 1010.1 hPa | - | - | - | - |
| 1787830020 | 16.11° C | 53% | 1011.3 hPa | - | - | - | - |
| 1787829120 | 15.56° C | 55% | 1011.9 hPa | - | - | - | - |
| 1787828220 | 16.67° C | 51% | 1011.1 hPa | - | - | - | - |
| 1787827320 | 16.67° C | 54% | 1011.2 hPa | - | - | - | - |
| 1787826420 | 16.67° C | 54% | 1011.2 hPa | - | - | - | - |
| 1787825520 | 14.44° C | 58% | 1012.5 hPa | - | - | - | - |
| 1787824621 | 15.56° C | 59% | 1011.4 hPa | - | - | - | - |
| 1787823720 | 15° C | 61% | 1012 hPa | - | - | - | - |
| 1787822820 | 13.89° C | 62% | 1012.4 hPa | - | - | - | - |
| 1787821921 | 13.33° C | 66% | 1013.1 hPa | - | - | - | - |
| 1787821009 | 13.33° C | 65% | 1012.9 hPa | - | - | - | - |
| 1787820108 | 13.33° C | 67% | 1012.9 hPa | - | - | - | - |
* Rain since midnight (hover to see other rain measurements)
** Current wind speed in m/s (hover to see current wind gust speed)